Погода в Курдамире

Погода в Курдамире : погода сейчас, прогноз погоды и архив. Всё, что Вы хотите узнать о погоде в Курдамире!

Поиск расширенной информации на нашем сайте:

Другие новости

Новости СМИ2

Главная страница сайта

Новости сайта

03.07.2017

Напоминаем, что на нашем специализированном сайте Метеоцентр.Азия вы можете получить высокодетализированные автоматические прогнозы погоды по пунктам России, СНГ и мира в авиационном формате (включающие направление и скорость ветра, видимость, явления погоды, количество и форму облачности, нижнюю и верхнюю границу облачности).


Погода в Курдамире - сегодня

Время (UTC), дата Ветер
(°,м/с) 
Видим.   Явления Облачность Т
(°С)
Тd
(°С)
f(%) Тe
(°С)
Pmin
(гПа)
dP
(гПа)
Po
(мм)
O2
(г/м3)
Тmin Tmax R s Состояние
почвы
12 19.02.18 240 (ЮЗ) 20000 м    10/10 600 м 
[Sc]
+6.1 +3.2 82 +7  1018.3  -0.4  763  300           
15 19.02.18 160 (Ю) 20000 м    10/10 600 м 
[Sc]
+6.2 +3.6 83 +7  1018.9  0.6  764  300           
21 19.02.18 140 (ЮВ) 20000 м    10/10 600 м 
[Sc]
+5.8 +3.9 88 +6  1020.2  0.4  765  301           
00 20.02.18 130 (ЮВ) 20000 м    10/10 600 м 
[Sc]
+5.7 +4.8 94 +7  1020.3  0.1  765  301           
03 20.02.18 210 (ЮЗ) 20000 м    10/10 600 м 
[Sc]
+5.4 +4.2 92 +6  1020.7  0.4  765  302           
09 20.02.18 260 (З) 20000 м    9/8 600 м средняя 
[Sc|Ac trans]
+7.8 +4.6 80 +9  1020.7  -0.7  765  299           
12 20.02.18 310 (СЗ) 20000 м    9/8 600 м средняя 
[Sc|Ac trans]
+8.4 +3.2 70 +8  1019.2  -1.5  764  298           
15 20.02.18 260 (З) 20000 м    10/10 600 м 
[Sc]
+7.9 +3.8 75 +8  1019.4  0.2  764  299           
21 20.02.18 220 (ЮЗ) 20000 м    10/10 600 м 
[Sc]
+7.2 +3.8 79 +7  1019.9  -0.3  765  300           
00 21.02.18 180 (Ю) 20000 м    10/10 600 м 
[Sc]
+6.8 +4 82 +8  1020.2  0.3  765  300           
03 21.02.18 220 (ЮЗ) 20000 м    10/10 600 м 
[Sc]
+6.4 +4.3 86 +7  1020.3  0.1  765  300           
06 21.02.18 020 (С) 20000 м    10/10 600 м 
[Sc]
+7 +4.5 84 +8  1021.1  0.8  765  300  +6.3         
09 21.02.18 150 (ЮВ) 20000 м    10/10 600 м 
[Sc]
+8.6 +3.8 72 +10  1020.7  -0.4  765  298           
12 21.02.18 тихо ()   20000 м    10/10 600 м 
[Sc]
+9.8 +4.5 70 +10  1019.6  -1.1  764  297           
15 21.02.18 170 (Ю) 20000 м    9/9 600 м 
[Sc]
+9.3 +4.8 73 +10  1019.9  0.3  765  297           
21 21.02.18 180 (Ю) 20000 м    10/10 600 м 
[Sc]
+7.2 +6.2 93 +7  1019.9  -0.6  765  299           
00 22.02.18 190 (Ю) 20000 м    10/10 600 м 
[Sc]
+7 +6.1 94 +8  1019  -0.9  764  299           
03 22.02.18 190 (Ю) 20000 м    10/10 600 м 
[Sc]
+6.9 +6.2 95 +8  1018.6  -0.4  764  299           
06 22.02.18 320 (СЗ) 4000 м  дымка  10/10 600 м 
[Sc]
+7.3 +5.9 91 +8  1018.6  764  299  +6.8         
09 22.02.18 300 (СЗ) 20000 м    10/9 600 м 
[Sc]
+8.7 +5.8 82 +10  1017.3  -1.3  763  297           
12 22.02.18 280 (З) 20000 м    10/10 600 м 
[Sc]
+9.8 +5 72 +11  1015.7  -1.6  761  295           
15 22.02.18 200 (Ю) 20000 м    10/10 600 м 
[Sc]
+9.3 +5.6 78 +10  1015.8  -0.1  761  296           
21 22.02.18 120 (ЮВ) 20000 м    10/10 600 м 
[Sc]
+7.8 +6.7 93 +9  1016.5  0.3  762  297           
00 23.02.18 180 (Ю) 20000 м    10/10 600 м 
[Sc]
+7.3 +6.7 96 +8  1016.4  -0.1  762  298           
03 23.02.18 140 (ЮВ) 20000 м    10/10 600 м 
[Sc]
+6.9 +6.2 95 +8  1016.7  0.3  762  299           
Время (UTC), дата Ветер
(°,м/с) 
Видим.   Явления Облачность Т
(°С)
Тd
(°С)
f(%) Тe
(°С)
Pmin
(гПа)
dP
(гПа)
Po
(мм)
O2
(г/м3)
Тmin Tmax R s Состояние
почвы

Для получения пояснительной информации подведите курсор к названию столбца.

ПОГОДА в Курдамире - архив

Всё, что Вы хотите узнать о погоде в Курдамире - удобно и подробно!

Выберите нужную дату (начиная с 1 января 2015* года) и нажмите кнопку "Найти".
Будут отображены архивные сводки погоды по пункту Курдамир, начиная с указанной даты.


Отображать данные в формате CSV (для использования в таблицах Excel)


Внимание! Наш архив погоды предназначен исключительно для личного некоммерческого использования в познавательных целях. Если Вам необходимы официальные справки о состоянии погоды (для производственных, юридических, коммерческих и т.п. целей), обращайтесь в органы Росгидромета.

*Примечание: данная дата относится к архиву по метеостанциям СССР (Россия, СНГ, Балтия).
Архив по метеостанциям Зарубежной Европы и Азии (кроме Китая) хранится 10 дней, по другим регионам земного шара (Китай, Африка, Америка, Австралия, Океания) - 1 день.

Курдамир - район местоположения метеостанции


Название, широта, долгота, высота метеостанции:
Курдамир 40.3°ш. 48.2°д. 4 м над ур. моря [Азербайджан]

Дополнительная информация

В oтличие oт бoльшинства пoгoдных сайтoв мы публикуем пoдрoбную метеoинфoрмацию в детальнoм прoфессиoнальнoм фoрмате.

Характеристики температуры и влажнoсти вoздуха измеряются на высoте 2 м в тени вдали oт зданий и деревьев.
Скoрoсть ветра измеряется на высoте 10 м (на урoвне рoста челoвека скoрoсть ветра ниже в 1.5-2 раза). Если метеoстанция нахoдится в гoрoде или в лесу, тo скoрoсть ветра занижена на 2-4 м/с пo сравнению с oткрытым местoм. Скoрoсть ветра над акватoриями крупных рек и oзёр, а также на вершинах хoлмoв на 2-5 м/с выше, чем в oбычных услoвиях.
Атмoсфернoе давление в разных тoчках местнoсти мoжет значительнo oтличаться oт давления на метеoстанции, в зависимoсти oт услoвий рельефа (при пoдъёме на 10 м давление пoнижается примернo на 1 мм рт.ст.).